Simultaneous Nadir Overpasses (SNOs) Predictions

Prediction of SNOs between AURA and NPP Satellite Orbit:

Table of predicted SNOs for the next 14.0 days since TLE Epoch: 7/3/2021
Index Date (AURA) Time (AURA) Lat,Lon (AURA) SZA (AURA ) Date (NPP) Time (NPP) Lat,Lon (NPP) SZA (NPP ) Distance(km) Time Diff (sec)
1 07/04/2021 02:51:55 -79.30,-147.56 109.58 07/04/2021 02:50:57 -79.31,-147.46 109.56 2.17 58
2 07/04/2021 03:41:15 79.53, 21.62 70.09 07/04/2021 03:41:35 79.52, 21.59 70.08 0.77 20
3 07/06/2021 19:08:23 -79.32, -31.52 109.34 07/06/2021 19:07:54 -79.32, -31.62 109.30 2.20 29
4 07/06/2021 19:57:41 79.62, 138.19 70.22 07/06/2021 19:58:29 79.63, 138.26 70.17 1.60 48
5 07/09/2021 11:24:47 -79.46, 85.26 109.22 07/09/2021 11:24:46 -79.46, 85.27 109.22 0.32 1
6 07/09/2021 12:11:53 81.65, -54.75 62.85 07/09/2021 12:13:06 80.95, -55.83 62.56 79.25 73
7 07/12/2021 02:51:52 79.30, 32.49 71.37 07/12/2021 02:51:02 79.31, 32.56 71.39 1.57 50
8 07/12/2021 03:41:14 -79.51,-158.50 108.94 07/12/2021 03:41:42 -79.50,-158.65 108.93 3.14 28
9 07/14/2021 19:08:19 79.35, 148.67 71.70 07/14/2021 19:07:58 79.35, 148.61 71.73 1.27 21



Historial Predications of SNOs between AURA and NPP
